User: anonymous   Login
Location: Bílinka
(49.3579°N, 14.3767°E)
Time: 13:30:24
(UTC+00:00)
Language:

Cosmos 1140 Rocket - Orbit

View from above orbital plane
View from above orbital plane
View from above satellite
View from above satellite

Ground track
Ground track

The orbit data is extracted from the following two-line orbital elements,

1 11574U 79089B   23160.71501961  .00000376  00000-0  12471-3 0  9997
2 11574  74.0674 147.6923 0016700 219.7182 140.2752 14.41161256291413
Epoch (UTC): 09 June 2023 17:09:37
Eccentricity: 0.0016700
inclination: 74.0674°
perigee height: 743 km
apogee height: 766 km
right ascension of ascending node: 147.6923°
argument of perigee: 219.7182°
revolutions per day: 14.41161256
mean anomaly at epoch: 140.2752°
orbit number at epoch: 29141

The dashed part of the orbit path shows where the satellite is in the earth's shadow,  

DLR